Weather in Berbera

Somalia     10°13′38″N   45°14′46″E
temp.,
°C
wind,
m/s
gust,
m/s
humid.,
%
clouds,
%
prec.,
mm/h
press.,
hPa
HPBL,
m
21 april, wed
wed2100:00+26nnw22669 0.0 1011137
03:00+24w1282100 0.0 1010113
06:00+24wnw228079 0.0 101171
09:00+30nne134492 0.0 1012881
12:00+35nne5431100 0.0 10092018
15:00+34n753856 0.0 10071002
18:00+30nne33495 0.0 1009681
21:00+29ne22525 0.0 1010225
22 april, thu
thu2200:00+27wnw236120 0.0 1011181
03:00+25wnw227891 0.0 1010147
06:00+24wnw11800 0.0 101185
09:00+29nnw13525 0.0 1013939
12:00+35n55335 0.0 10102359
15:00+33n65455 0.0 1007870
18:00+30nne435685 0.0 1008739
21:00+29se22595 0.1 1009283
23 april, fri
fri2300:00+26nw56755 0.0 1010279
03:00+25wnw338724 0.6 1009197
06:00+25n11861 0.3 1011117
09:00+32sse25415 0.4 10111362
12:00+36nne342967 0.0 10082900
15:00+33n644853 0.3 1006893
18:00+30ne435620 0.1 1008644
21:00+30ene235777 0.1 1009345
24 april, sat
sat2400:00+29nw326396 0.0 1008141
03:00+26nw338146 0.1 1008157
06:00+25nw228744 0.1 1010117
09:00+31ne24508 0.8 10111157
12:00+36e232874 0.0 10073198
15:00+30nne3359100 1.9 1007316
18:00+29e575386 1.1 1007331
21:00+31e234365 1.1 1008163
25 april, sun
sun2500:00+30wnw114890 0.0 1008104
03:00+27wnw3372100 0.2 1009135
06:00+27nnw117098 0.5 101038
09:00+32sse454015 0.6 10121464
12:00+36se553072 0.0 10082826
15:00+33nnw524442 0.2 1006729
18:00+32nne324961 0.2 1008651
21:00+31nnw215798 0.2 1009234